Columbia Metropolitan Airport Columbia US
ICAO: KCAE
IATA: CAE
Category: Large
Scheduled Services: Yes

Elevation: 236 ft
TransAlt. 18000 ft.

Airport Communications:
APP/DEP:124.15
ATIS:120.15
CLNC DEL:119.75
GND:121.9
ANDERSON RDO:122.65
TWR:119.5
UNICOM:122.95

KCAE Zoom In..

If you have problems with the map follow the link
https://www.worldairports.se/pages/airport.php?
ICAO=KCAE

Runways:

(A) RW 05 length 8001 ft width 150 ft
ILS 108.95 / hdg 50

(B) RW 11 length 8601 ft width 150 ft
ILS 110.30 / hdg 110

(C) RW 23 length 8001 ft width 150 ft
---- / hdg 230

(D) RW 29 length 8601 ft width 150 ft
ILS 108.30 / hdg 290

Location; KCAE
Day. 18 / Time. 20.56 Zulu
* Altimeter: 30.08
* Temperature: 14° c. 57.2°f.
* Wind from: 000° Speed 00 kn.
Dewpoint: 09° c.
Visibility: 10 Statute Miles.
Clouds: Broken 5500 ft.

KCAE 182056Z 00000KT 10SM BKN055 14/09 A3008 RMK AO2 SLP187 T01390094 55005


Wind - Calm.

 
 
jpsmedia.com for Web Design worldairports.se 2019   terms of use